Hettinger, ND

3:12 PM MST on February 19, 2018 (GMT -0700)
Hettinger Municipal

Weather History for KHEI - December, 2012

Change the Weather History Date:

Saturday, December 8, 2012

  Actual Average Record
Temperature  
Mean Temperature 16 °F -  
Max Temperature 26 °F 31 °F 57 °F (2006)
Min Temperature 6 °F 8 °F -21 °F (2016)
Degree Days  
Heating Degree Days 49 45  
Month to date heating degree days 257 353  
Since 1 July heating degree days 2235 2483  
Moisture  
Dew Point 13 °F    
Average Humidity 85    
Maximum Humidity 96    
Minimum Humidity 80    
Precipitation  
Precipitation 0.02 in 0.01 in 0.02 in (2012)
Month to date precipitation 0.03 0.05  
Year to date precipitation 14.61 15.84  
Sea Level Pressure  
Sea Level Pressure 29.82 in    
Wind  
Wind Speed 13 mph (NE)    
Max Wind Speed 29 mph    
Max Gust Speed 37 mph    
Visibility 5 miles    
Events Snow    
T = Trace of Precipitation, MM = Missing Value Source: NWS Daily Summary

Daily Weather History Graph

Daily Weather History Graph

Search for Another Location

Airport or City:

Trip Planner

Search our weather history database for the weather conditions in past years. The results will help you decide how hot, cold, wet, or windy it might be!

Date:

Astronomy

Dec. 08, 2012 Rise Set
Actual Time 7:20 AM MST 4:05 PM MST
Civil Twilight 6:45 AM MST 4:39 PM MST
Nautical Twilight 6:08 AM MST 5:17 PM MST
Astronomical Twilight 5:31 AM MST 5:53 PM MST
Moon 1:33 AM MST (12/8) 12:49 PM MST (12/8)
Length of Visible Light 9h 53m
Length of Day
8h 45m
Waning Crescent, 27% of the Moon is Illuminated
Dec 8
Waning Crescent
Dec 13
New
Dec 19
First Quarter
Dec 28
Full
Jan 4
Last Quarter

Hourly Weather History & Observations

Time (MST) Temp. Windchill Dew Point Humidity Pressure Visibility Wind Dir Wind Speed Gust Speed Precip Events Conditions
12:22 AM 14.0 °F 8.2 °F 10.4 °F 86% 29.75 in 1.8 mi SE 3.5 mph - N/A   Clear
12:29 AM 17.6 °F 12.3 °F 14.0 °F 86% 29.74 in 3.0 mi SSE 3.5 mph - N/A   Clear
12:53 AM 18.0 °F 12.7 °F 16.0 °F 92% 29.83 in 10.0 mi SSE 3.5 mph - N/A   Clear
1:53 AM 16.0 °F - 14.0 °F 92% 29.81 in 5.0 mi Calm Calm - N/A   Clear
1:58 AM 14.0 °F - 12.2 °F 93% 29.72 in 1.5 mi Calm Calm - N/A   Clear
2:10 AM 15.8 °F - 10.4 °F 79% 29.72 in 4.0 mi Calm Calm - N/A   Clear
2:53 AM 17.1 °F - 12.9 °F 84% 29.79 in 10.0 mi Calm Calm - N/A   Partly Cloudy
4:53 AM 17.1 °F 11.7 °F 14.0 °F 88% 29.77 in 10.0 mi East 3.5 mph - N/A   Overcast
5:53 AM 17.1 °F 7.6 °F 14.0 °F 88% 29.76 in 10.0 mi East 6.9 mph - N/A   Mostly Cloudy
6:19 AM 17.6 °F 9.3 °F 15.8 °F 93% 29.64 in 2.5 mi East 5.8 mph - N/A   Mostly Cloudy
6:28 AM 17.6 °F 8.2 °F 15.8 °F 93% 29.64 in 3.0 mi East 6.9 mph - N/A   Mostly Cloudy
6:53 AM 19.0 °F 10.0 °F 16.0 °F 88% 29.73 in 10.0 mi East 6.9 mph - N/A   Mostly Cloudy
7:33 AM 19.4 °F 8.6 °F 15.8 °F 86% 29.63 in 10.0 mi East 9.2 mph - N/A   Overcast
7:53 AM 19.0 °F 12.3 °F 16.0 °F 88% 29.75 in 10.0 mi ESE 4.6 mph - N/A   Overcast
8:53 AM 21.9 °F 13.4 °F 19.0 °F 89% 29.74 in 10.0 mi SE 6.9 mph - N/A   Clear
9:10 AM 23.0 °F 14.7 °F 19.4 °F 86% 29.65 in 10.0 mi SE 6.9 mph - N/A   Partly Cloudy
9:53 AM 23.0 °F 11.7 °F 19.9 °F 88% 29.76 in 10.0 mi SE 11.5 mph - N/A   Clear
10:15 AM 23.0 °F 11.1 °F 19.4 °F 86% 29.66 in 10.0 mi SE 12.7 mph - N/A   Partly Cloudy
10:43 AM 23.0 °F 12.4 °F 19.4 °F 86% 29.65 in 10.0 mi SE 10.4 mph - N/A   Mostly Cloudy
10:53 AM 23.0 °F 13.1 °F 19.9 °F 88% 29.76 in 10.0 mi ESE 9.2 mph - N/A   Overcast
11:45 AM 23.0 °F 14.7 °F 21.2 °F 93% 29.65 in 5.0 mi SE 6.9 mph - N/A   Overcast
11:53 AM 23.0 °F 13.9 °F 21.0 °F 92% 29.77 in 4.0 mi SE 8.1 mph - N/A   Overcast
12:53 PM 24.1 °F 19.7 °F 21.9 °F 91% 29.76 in 8.0 mi South 3.5 mph - N/A   Overcast
1:53 PM 25.0 °F 15.5 °F 23.0 °F 92% 29.77 in 8.0 mi NNE 9.2 mph - N/A   Overcast
2:53 PM 26.1 °F 18.4 °F 23.0 °F 88% 29.79 in 5.0 mi NE 6.9 mph - N/A   Overcast
3:41 PM 26.6 °F 16.8 °F 23.0 °F 86% 29.71 in 8.0 mi NE 10.4 mph - N/A   Overcast
3:53 PM 26.1 °F 15.6 °F 23.0 °F 88% 29.83 in 6.0 mi NE 11.5 mph - N/A   Overcast
4:41 PM 19.4 °F 4.5 °F 15.8 °F 86% 29.75 in 2.5 mi North 17.3 mph 25.3 mph 0.00 in Snow Light Snow
4:53 PM 18.0 °F 1.7 °F 14.0 °F 84% 29.89 in 2.0 mi North 19.6 mph 26.5 mph 0.00 in Snow Light Snow
5:05 PM 17.6 °F 2.7 °F 12.2 °F 79% 29.78 in 2.0 mi North 16.1 mph 24.2 mph 0.00 in Snow Light Snow
5:12 PM 15.8 °F -1.1 °F 12.2 °F 86% 29.78 in 2.0 mi North 19.6 mph 26.5 mph 0.01 in Snow Light Snow
5:39 PM 15.8 °F -1.1 °F 10.4 °F 79% 29.80 in 1.8 mi North 19.6 mph 27.6 mph 0.01 in Snow Light Snow
5:53 PM 12.9 °F -5.7 °F 9.0 °F 84% 29.95 in 2.5 mi North 21.9 mph 31.1 mph 0.01 in Snow Light Snow
6:12 PM 12.2 °F -7.9 °F 6.8 °F 79% 29.83 in 4.0 mi North 25.3 mph 35.7 mph 0.00 in Snow Light Snow
6:29 PM 10.4 °F -10.3 °F 6.8 °F 85% 29.85 in 2.0 mi North 25.3 mph 32.2 mph 0.00 in Snow Light Snow
6:38 PM 10.4 °F -9.9 °F 6.8 °F 85% 29.85 in 1.8 mi North 24.2 mph 36.8 mph 0.00 in Snow Light Snow
6:53 PM 10.9 °F -9.2 °F 6.1 °F 81% 29.99 in 0.8 mi North 24.2 mph 33.4 mph 0.00 in Snow Light Snow
7:12 PM 10.4 °F -10.7 °F 5.0 °F 79% 29.87 in 0.5 mi North 26.5 mph 33.4 mph 0.00 in Snow Snow
7:53 PM 8.1 °F -13.8 °F 3.0 °F 80% 30.04 in 1.0 mi North 26.5 mph 35.7 mph 0.01 in Snow Light Snow
8:00 PM 8.6 °F -12.7 °F 3.2 °F 79% 29.90 in 1.2 mi North 25.3 mph 35.7 mph 0.00 in Snow Light Snow
8:15 PM 6.8 °F -14.7 °F 1.4 °F 79% 29.91 in 1.5 mi North 24.2 mph 32.2 mph 0.00 in Snow Light Snow
8:53 PM 7.0 °F -14.5 °F 1.9 °F 80% 30.09 in 1.2 mi North 24.2 mph 34.5 mph 0.00 in Snow Light Snow
9:50 PM 6.8 °F -14.7 °F 1.4 °F 79% 30.00 in 1.2 mi North 24.2 mph 34.5 mph 0.00 in Snow Light Snow
9:53 PM 7.0 °F -15.6 °F 1.0 °F 77% 30.14 in 1.2 mi North 27.6 mph 34.5 mph 0.00 in Snow Light Snow
10:53 PM 7.0 °F -12.6 °F 1.9 °F 80% 30.19 in 1.0 mi North 19.6 mph 29.9 mph 0.00 in Snow Light Snow
11:53 PM 6.1 °F -14.3 °F 1.0 °F 80% 30.23 in 0.8 mi North 20.7 mph 31.1 mph 0.00 in Snow Light Snow